Find Starlink 30547

NORAD ID: 58044 Int'l Des: 2023-156 Owner: SPXS Country: US Constellation: starlink operational
LEOCIRCULAR

当前视图

正在加载3D地球...

About Starlink 30547

Starlink 30547 (NORAD 58044) is a starlink constellation satellite (v2 mini) launched Oct 9, 2023 by SPXS of US. It operates in LEO, CIRCULAR orbit with a mass of 730.00 kg.

即将过境

Passes for default location (London). Set your location on the main map for personalized predictions.

高度历史

Loading altitude history...

两行轨道根数

1 58044U 23156S 26263.90941925 .00000182 00000-0 16529-4 0 9994
2 58044 53.1633 337.6928 0001426 91.4652 268.6514 15.34390694164975
Epoch: Sep 20, 2026 • Age: 9 hours

当前状态

高度 476.7 km
远地点 / 近地点 N/A
速度 7.63 km/s
星下点 -39.93°S, 167.47°W
发射日期 Oct 9, 2023
运行时间 2.9 years
类型 internet

技术详情

分类 Payload
质量 730.00 kg
干质量 700.00 kg
长度 0.30 m
跨度 29.00 m
形状 ? Box + pan
制造商 SPXS
平台类型 Starlink V2M
阶段状态 In Orbit
所有者/国家 SPXS/US

Most Searched